[[{"header":{"parameterUnit":"m.s-1","parameterCategory":1,"la1":30.2991,"la2":30.254,"lo1":-89.0895,"lo2":-89.0444,"dy":0.0017,"dx":0.0017,"nx":28,"ny":28,"refTime":"2025-01-22T03:00:00:Z","depth":0,"parameterNumber":2,"parameterNumberName":"U-component_of_WINDS"},"data":[0,0,0,0,0,0,0,0,0,0,0,0,0,0,0,0,0,0,0,0,0,0,0,0,0,0,0,0,0,0,0,0,0,0,0,0,0,0,0,0,0,0,0,0,0,0,0,0,0,0,0,0,0,0,0,0,0,0,-0.4848,-0.4849,0,-0.4956,-0.4957,-0.4958,-0.498,-0.4979,-0.4978,-0.4977,-0.5092,-0.5095,-0.5099,0,0,0,0,0,0,0,0,0,0,0,0,0,-0.4663,-0.4666,-0.4848,-0.4849,-0.485,-0.4956,-0.4957,-0.4959,-0.498,-0.4979,-0.4978,-0.4977,-0.509,-0.5095,-0.51,0,0,0,0,0,0,0,0,0,0,0,0,0,-0.4754,-0.4667,-0.4847,-0.4874,-0.4877,-0.4955,-0.4957,-0.4959,-0.498,-0.4979,-0.4978,-0.4977,-0.5089,-0.5094,-0.51,-0.5161,0,0,-0.5118,-0.512,0,0,0,0,0,0,0,0,-0.4749,-0.4761,-0.4868,-0.4872,-0.4876,-0.4953,-0.4934,-0.5027,-0.4981,-0.4941,-0.4977,-0.4976,-0.5047,-0.5056,-0.5079,-0.5166,-0.5171,-0.5118,-0.5122,-0.5124,-0.5126,0,0,0,0,0,0,0,-0.4743,-0.4757,-0.4891,-0.487,-0.4875,-0.4881,-0.4893,-0.4952,-0.5,-0.4945,-0.4946,-0.4959,-0.5049,-0.5073,-0.5082,-0.5173,-0.5118,-0.5123,-0.5127,-0.5129,-0.5315,-0.5317,0,0,0,0,0,0,-0.4731,-0.4751,-0.4887,-0.4894,-0.4808,-0.4885,-0.4898,-0.493,-0.4999,-0.5009,-0.496,-0.4959,-0.5064,-0.5075,-0.5086,-0.5162,-0.5124,-0.5129,-0.5133,-0.5314,-0.5316,-0.5317,0,0,0,0,0,0,-0.4727,-0.4743,-0.4883,-0.4823,-0.4841,-0.489,-0.4925,-0.4932,-0.4957,-0.5011,-0.502,-0.4976,-0.5064,-0.5078,-0.5142,-0.5166,-0.5132,-0.5137,-0.5312,-0.5314,-0.5316,-0.5313,0,0,0,0,0,0,-0.4722,-0.4742,-0.4765,-0.4823,-0.4844,-0.4936,-0.4926,-0.4935,-0.4967,-0.4967,-0.5028,-0.5037,-0.5064,-0.5133,-0.5148,-0.5173,-0.5142,-0.531,-0.5313,-0.5316,-0.5311,-0.5315,-0.5318,0,0,0,0,0,-0.4715,-0.476,-0.4766,-0.4782,-0.4874,-0.4937,-0.4949,-0.4978,-0.4968,-0.4992,-0.5027,-0.5035,-0.5161,-0.5139,-0.5156,-0.5184,-0.5309,-0.5312,-0.5316,-0.531,-0.5314,-0.5318,0,0,0,0,0,0,-0.4704,-0.4768,-0.4775,-0.484,-0.4883,-0.4941,-0.4972,-0.4982,-0.5029,-0.5028,-0.5062,-0.5076,-0.5138,-0.5167,-0.5142,-0.5246,-0.5234,-0.5241,-0.5225,-0.5229,-0.5233,-0.5224,-0.5147,0,0,0,0,0,-0.4709,-0.4754,-0.4808,-0.486,-0.4881,-0.4923,-0.4951,-0.4969,-0.5016,-0.5034,-0.5073,-0.5119,-0.5168,-0.52,-0.5249,-0.5316,-0.533,-0.5343,-0.5346,-0.5349,-0.5355,-0.5392,-0.5399,-0.5328,-0.5328,-0.5328,0,0,-0.472,-0.4761,-0.4787,-0.4859,-0.4894,-0.4941,-0.4938,-0.4988,-0.5023,-0.5042,-0.5105,-0.5135,-0.5188,-0.5253,-0.5284,-0.528,-0.5377,-0.5353,-0.5355,-0.5359,-0.5396,-0.5403,-0.5409,-0.5331,-0.533,-0.533,0,0,-0.4764,-0.4799,-0.4846,-0.4881,-0.4934,-0.4961,-0.4973,-0.5029,-0.5049,-0.5112,-0.5128,-0.5171,-0.5256,-0.5293,-0.5323,-0.538,-0.539,-0.5395,-0.5413,-0.5449,-0.5455,-0.546,-0.548,-0.5487,-0.54,-0.54,-0.54,0,-0.4772,-0.4842,-0.487,-0.4918,-0.495,-0.4968,-0.5017,-0.505,-0.5116,-0.5138,-0.5132,-0.5238,-0.5276,-0.535,-0.5364,-0.5387,-0.5402,-0.5388,-0.5451,-0.5457,-0.5462,-0.5482,-0.549,-0.5401,-0.5401,-0.5401,-0.5401,0,-0.4848,-0.4896,-0.4928,-0.4991,-0.5026,-0.5074,-0.511,-0.5143,-0.5158,-0.5186,-0.525,-0.5295,-0.5353,-0.5372,-0.5388,-0.5448,-0.5444,-0.5444,-0.5433,-0.5468,-0.5488,-0.5496,-0.5401,-0.5401,-0.5401,-0.5401,0,0,-0.4889,-0.4965,-0.4976,-0.5005,-0.5064,-0.5103,-0.5152,-0.5208,-0.5235,-0.528,-0.5323,-0.5394,-0.5394,-0.5428,-0.5449,-0.548,-0.5523,-0.5477,-0.5478,-0.5484,-0.5593,-0.5592,-0.5601,-0.5529,-0.5531,-0.5532,-0.5588,0,-0.494,-0.5027,-0.5054,-0.5128,-0.5173,-0.5191,-0.5234,-0.5276,-0.5303,-0.5346,-0.5377,-0.5427,-0.5424,-0.5444,-0.5476,-0.5511,-0.5545,-0.5507,-0.557,-0.5572,-0.5557,-0.5611,-0.5611,-0.5661,-0.5596,-0.5597,-0.5598,0,-0.5011,-0.5056,-0.5134,-0.5188,-0.5208,-0.5246,-0.5299,-0.5339,-0.5387,-0.5405,-0.5442,-0.546,-0.5513,-0.5499,-0.5573,-0.5546,-0.5574,-0.5595,-0.5597,-0.5605,-0.5588,-0.562,-0.5678,-0.5686,-0.5611,-0.561,-0.5609,0,-0.5033,-0.5113,-0.517,-0.5194,-0.5258,-0.5284,-0.5312,-0.5359,-0.539,-0.5437,-0.5458,-0.551,-0.5539,-0.558,-0.5611,-0.5598,-0.5683,-0.5671,-0.57,-0.5699,-0.5717,-0.5716,-0.5781,-0.5735,-0.5734,-0.5734,-0.5734,0,-0.5088,-0.5135,-0.5181,-0.5216,-0.5269,-0.53,-0.5352,-0.5381,-0.5422,-0.5464,-0.5483,-0.5522,-0.5561,-0.5605,-0.563,-0.5688,-0.5701,-0.5718,-0.5724,-0.5716,-0.5714,-0.5735,-0.5732,-0.5736,-0.5736,-0.5735,-0.5735,0,-0.5121,-0.5154,-0.5217,-0.5272,-0.5287,-0.5323,-0.5371,-0.5406,-0.5434,-0.5486,-0.5501,-0.5545,-0.5598,-0.5633,-0.5701,-0.5718,-0.5781,-0.5786,-0.5764,-0.5767,-0.5794,-0.5791,-0.5875,-0.5888,-0.5833,-0.5833,-0.5834,0,-0.5154,-0.519,-0.5248,-0.5277,-0.5305,-0.5351,-0.5383,-0.5414,-0.5447,-0.5504,-0.5532,-0.5586,-0.5631,-0.5715,-0.5754,-0.5807,-0.5814,-0.5839,-0.5822,-0.5813,-0.5814,-0.5812,-0.5816,-0.5842,-0.5843,-0.5843,-0.5843,0,-0.5209,-0.5223,-0.5267,-0.5317,-0.5355,-0.5396,-0.5438,-0.546,-0.5499,-0.5535,-0.5589,-0.5623,-0.5692,-0.5746,-0.5802,-0.5832,-0.5845,-0.5848,-0.5858,-0.5851,-0.5836,-0.5845,-0.5772,-0.5847,-0.5846,-0.5846,-0.5846,-0.5846,-0.5243,-0.5276,-0.5322,-0.5371,-0.5405,-0.5443,-0.5479,-0.551,-0.5555,-0.5613,-0.5629,-0.5686,-0.5733,-0.5809,-0.584,-0.5885,-0.5882,-0.5896,-0.5899,-0.5902,-0.5902,-0.5829,-0.5895,-0.5895,-0.5895,-0.5895,-0.5895,0,-0.5299,-0.5329,-0.5374,-0.543,-0.5469,-0.5476,-0.5522,-0.5554,-0.5603,-0.5645,-0.5689,-0.5751,-0.5803,-0.5845,-0.5899,-0.5927,-0.5934,-0.594,-0.5938,-0.5945,-0.5902,-0.5888,-0.5933,-0.5933,-0.5933,-0.5933,-0.5933,-0.5933,-0.5333,-0.5389,-0.5408,-0.5482,-0.5512,-0.5566,-0.5592,-0.5627,-0.5661,-0.5729,-0.5772,-0.5798,-0.5841,-0.5898,-0.5946,-0.5958,-0.5977,-0.5982,-0.5994,-0.5953,-0.5948,-0.5944,-0.5932,-0.5985,-0.5985,-0.6034,-0.6035,-0.6035]},{"header":{"parameterUnit":"m.s-1","parameterCategory":1,"la1":30.2991,"la2":30.254,"lo1":-89.0895,"lo2":-89.0444,"dy":0.0017,"dx":0.0017,"nx":28,"ny":28,"refTime":"2025-01-22T03:00:00:Z","depth":0,"parameterNumber":3,"parameterNumberName":"V-component_of_WINDS"},"data":[0,0,0,0,0,0,0,0,0,0,0,0,0,0,0,0,0,0,0,0,0,0,0,0,0,0,0,0,0,0,0,0,0,0,0,0,0,0,0,0,0,0,0,0,0,0,0,0,0,0,0,0,0,0,0,0,0,0,-0.0168,-0.0168,0,-0.018,-0.018,-0.018,-0.0218,-0.0219,-0.022,-0.0221,-0.0232,-0.0231,-0.0231,0,0,0,0,0,0,0,0,0,0,0,0,0,-0.018,-0.0179,-0.0168,-0.0168,-0.0169,-0.018,-0.018,-0.018,-0.0218,-0.0219,-0.022,-0.0221,-0.0232,-0.0231,-0.0231,0,0,0,0,0,0,0,0,0,0,0,0,0,-0.0181,-0.0179,-0.0168,-0.0189,-0.0191,-0.018,-0.018,-0.018,-0.0218,-0.0219,-0.022,-0.0222,-0.0232,-0.0232,-0.0231,-0.02,0,0,-0.0229,-0.0228,0,0,0,0,0,0,0,0,-0.0181,-0.0181,-0.0186,-0.0187,-0.019,-0.0199,-0.0188,-0.0187,-0.0217,-0.0207,-0.0221,-0.0222,-0.022,-0.022,-0.0219,-0.0201,-0.0202,-0.0228,-0.0228,-0.0228,-0.0227,0,0,0,0,0,0,0,-0.0181,-0.018,-0.0173,-0.0186,-0.0188,-0.0198,-0.0199,-0.0188,-0.0206,-0.0208,-0.0211,-0.0212,-0.0221,-0.022,-0.022,-0.0202,-0.0228,-0.0228,-0.0227,-0.0227,-0.016,-0.0158,0,0,0,0,0,0,-0.0178,-0.018,-0.0172,-0.0173,-0.0188,-0.0196,-0.0198,-0.0195,-0.0207,-0.021,-0.0211,-0.0214,-0.0221,-0.0221,-0.0221,-0.0186,-0.0228,-0.0227,-0.0227,-0.0161,-0.0159,-0.0158,0,0,0,0,0,0,-0.0178,-0.0177,-0.0172,-0.0177,-0.0178,-0.0195,-0.019,-0.0194,-0.0193,-0.0208,-0.0212,-0.0207,-0.0222,-0.0222,-0.0205,-0.0187,-0.0227,-0.0226,-0.0163,-0.0161,-0.0159,-0.0117,0,0,0,0,0,0,-0.0178,-0.0177,-0.0165,-0.0177,-0.0177,-0.0156,-0.0189,-0.0193,-0.0192,-0.0196,-0.0205,-0.0208,-0.0223,-0.0206,-0.0205,-0.0187,-0.0225,-0.0164,-0.0162,-0.0159,-0.012,-0.0114,-0.0109,0,0,0,0,0,-0.0178,-0.0153,-0.0164,-0.0163,-0.0163,-0.0155,-0.0155,-0.0173,-0.019,-0.0179,-0.0189,-0.0208,-0.0189,-0.0204,-0.0203,-0.0184,-0.0166,-0.0162,-0.0159,-0.0123,-0.0115,-0.0109,0,0,0,0,0,0,-0.0138,-0.0155,-0.0168,-0.0145,-0.0148,-0.0162,-0.0148,-0.0164,-0.0163,-0.0166,-0.0188,-0.019,-0.0171,-0.0176,-0.0192,-0.0156,-0.0181,-0.0177,-0.0153,-0.0146,-0.014,-0.0139,-0.0225,0,0,0,0,0,-0.0126,-0.0119,-0.0134,-0.0112,-0.0113,-0.013,-0.0127,-0.0141,-0.0145,-0.0147,-0.0156,-0.0159,-0.0154,-0.0151,-0.0147,-0.0121,-0.0124,-0.0108,-0.0102,-0.0097,-0.0094,-0.0081,-0.0074,-0.0148,-0.0148,-0.0148,0,0,-0.0102,-0.0111,-0.0104,-0.0104,-0.0109,-0.01,-0.0131,-0.0121,-0.0115,-0.0145,-0.0131,-0.0137,-0.0143,-0.0122,-0.0113,-0.0125,-0.0074,-0.0094,-0.009,-0.0089,-0.0078,-0.0071,-0.0064,-0.0146,-0.0146,-0.0147,0,0,-0.0055,-0.006,-0.0043,-0.0047,-0.0053,-0.0065,-0.006,-0.0071,-0.0077,-0.0063,-0.0085,-0.0079,-0.007,-0.0073,-0.0073,-0.0027,-0.0045,-0.0026,0.0005,0.0017,0.0023,0.0028,0.0044,0.005,-0.0022,-0.0022,-0.0022,0,-0.0024,-0.0012,-0.0032,-0.002,-0.002,-0.0048,-0.0031,-0.0033,-0.0038,-0.0037,-0.0051,-0.0041,-0.0047,-0.0027,-0.0016,-0.0015,-0.0011,-0.0024,0.0024,0.0029,0.0033,0.0048,0.0054,-0.002,-0.002,-0.002,-0.0021,0,0.0026,0.0034,0.0049,0.0044,0.0046,0.0061,0.0043,0.0047,0.0034,0.0023,0.0038,0.003,0.0032,0.0035,0.0022,0.0053,0.0045,0.0028,0.0003,0.0043,0.0057,0.0062,-0.0017,-0.0017,-0.0018,-0.0019,0,0,0.01,0.0084,0.0089,0.0087,0.0077,0.0083,0.0096,0.0097,0.0101,0.0099,0.0109,0.0117,0.01,0.01,0.0086,0.0097,0.0133,0.0078,0.0078,0.0089,0.0166,0.018,0.0187,0.0122,0.0123,0.0123,0.0167,0,0.0145,0.0166,0.0148,0.0172,0.0179,0.0153,0.0164,0.0159,0.015,0.0155,0.0144,0.015,0.0128,0.0128,0.0137,0.0127,0.0149,0.0124,0.0131,0.0131,0.0133,0.0194,0.0208,0.0249,0.0172,0.0173,0.0174,0,0.0201,0.0201,0.0225,0.0214,0.0216,0.0226,0.0225,0.023,0.0224,0.0217,0.0216,0.0199,0.021,0.0185,0.0201,0.0184,0.0186,0.0181,0.0182,0.0182,0.0155,0.0196,0.0262,0.0268,0.0182,0.0181,0.0181,0,0.0252,0.0258,0.0273,0.0272,0.0259,0.0266,0.0261,0.0254,0.0256,0.0255,0.0255,0.0256,0.0256,0.0257,0.0241,0.0224,0.0258,0.0232,0.0252,0.0252,0.026,0.026,0.0328,0.0262,0.0262,0.0261,0.0261,0,0.0305,0.0321,0.0296,0.0306,0.0323,0.0302,0.0319,0.0311,0.0305,0.0312,0.0289,0.0297,0.0274,0.0279,0.0266,0.0281,0.0281,0.0275,0.0272,0.0277,0.0278,0.0278,0.0275,0.0263,0.0263,0.0262,0.0262,0,0.0365,0.0349,0.0364,0.035,0.0347,0.036,0.0348,0.0356,0.0345,0.0355,0.0356,0.0338,0.0343,0.0326,0.0328,0.0319,0.034,0.0332,0.0342,0.034,0.0361,0.0359,0.0431,0.0439,0.0368,0.0369,0.0369,0,0.04,0.0412,0.0399,0.0402,0.0398,0.0403,0.0404,0.0384,0.0386,0.038,0.0389,0.0391,0.0392,0.0401,0.0388,0.0389,0.0381,0.0406,0.0381,0.0386,0.0381,0.038,0.0381,0.0411,0.0412,0.0413,0.0414,0,0.0463,0.0455,0.0457,0.0457,0.0459,0.0457,0.0454,0.0458,0.0436,0.044,0.0444,0.0445,0.0446,0.0449,0.0447,0.0442,0.0424,0.0421,0.0426,0.0432,0.0437,0.0435,0.0357,0.042,0.0419,0.0419,0.0418,0.0418,0.0512,0.0521,0.0513,0.0516,0.0512,0.0509,0.0516,0.0505,0.0508,0.0508,0.0496,0.0502,0.0495,0.0491,0.0487,0.0492,0.048,0.0487,0.0489,0.0491,0.0494,0.0437,0.0492,0.0491,0.0491,0.0491,0.0491,0,0.0574,0.0567,0.057,0.0567,0.0569,0.0552,0.0547,0.0551,0.0557,0.0551,0.0553,0.0557,0.056,0.0547,0.0547,0.0554,0.0545,0.0554,0.0554,0.0553,0.0505,0.0501,0.0561,0.0561,0.0561,0.0561,0.0561,0.0561,0.0606,0.062,0.0611,0.0622,0.0615,0.0621,0.062,0.0617,0.0613,0.0619,0.0621,0.0612,0.0604,0.0604,0.0605,0.0601,0.0602,0.0614,0.0608,0.0563,0.0556,0.055,0.0546,0.0615,0.0615,0.0655,0.0655,0.0656]}]]